Change the Weather History Date:

Saturday, October 13, 2012

  Actual Average Record
Temperature  
Mean Temperature 58 °F -  
Max Temperature 69 °F 65 °F 123 °F (1997)
Min Temperature 46 °F 42 °F 28 °F (2002)
Degree Days  
Heating Degree Days 8    
Growing Degree Days 8 (Base 50)    
Moisture  
Dew Point 50 °F    
Average Humidity 80    
Maximum Humidity 100    
Minimum Humidity 56    
Precipitation  
Precipitation 0.00 in - - ()
Sea Level Pressure  
Sea Level Pressure 29.74 in    
Wind  
Wind Speed 10 mph (SSW)    
Max Wind Speed 18 mph    
Max Gust Speed 24 mph    
Visibility 8 miles    
Events Rain    
Averages and records for this station are not official NWS values.
T = Trace of Precipitation, MM = Missing Value Source: NWS Daily Summary

Daily Weather History Graph

Daily Weather History Graph

Search for Another Location

Airport or City:

Trip Planner

Search our weather history database for the weather conditions in past years. The results will help you decide how hot, cold, wet, or windy it might be!

Date:

Astronomy

Oct. 13, 2012 Rise Set
Actual Time 7:35 AM CDT 6:43 PM CDT
Civil Twilight 7:07 AM CDT 7:12 PM CDT
Nautical Twilight 6:34 AM CDT 7:45 PM CDT
Astronomical Twilight 6:01 AM CDT 8:18 PM CDT
Moon 5:24 AM CDT (10/13) 5:29 PM CDT (10/13)
Length of Visible Light 12h 05m
Length of Day
11h 08m
Waning Crescent, 5% of the Moon is Illuminated
Oct 13
Waning Crescent
Oct 15
New
Oct 21
First Quarter
Oct 29
Full
Nov 6
Last Quarter

Hourly Weather History & Observations

Time (CDT) Temp. Windchill Dew Point Humidity Pressure Visibility Wind Dir Wind Speed Gust Speed Precip Events Conditions
12:03 AM 48.2 °F - 42.8 °F 82% 29.97 in 10.0 mi South 13.8 mph 24.2 mph N/A   Overcast
12:55 AM 50.0 °F - 41.0 °F 71% 29.94 in 10.0 mi South 11.5 mph 16.1 mph N/A   Overcast
1:35 AM 50.0 °F - 42.8 °F 76% 29.92 in 10.0 mi South 13.8 mph - N/A   Overcast
1:55 AM 50.0 °F - 42.8 °F 76% 29.90 in 10.0 mi South 12.7 mph 18.4 mph N/A   Overcast
2:15 AM 48.2 °F - 42.8 °F 82% 29.88 in 10.0 mi South 12.7 mph - N/A   Overcast
2:35 AM 48.2 °F - 41.0 °F 76% 29.89 in 10.0 mi South 10.4 mph 16.1 mph N/A   Overcast
2:55 AM 48.2 °F - 42.8 °F 82% 29.88 in 7.0 mi SSW 10.4 mph - N/A   Overcast
3:15 AM 48.2 °F - 42.8 °F 82% 29.86 in 7.0 mi South 13.8 mph - N/A   Overcast
3:35 AM 48.2 °F - 42.8 °F 82% 29.86 in 7.0 mi South 5.8 mph - N/A   Overcast
3:55 AM 48.2 °F - 44.6 °F 87% 29.85 in 7.0 mi South 8.1 mph - N/A   Overcast
4:15 AM 48.2 °F - 44.6 °F 87% 29.85 in 7.0 mi South 6.9 mph - N/A   Overcast
4:35 AM 48.2 °F - 44.6 °F 87% 29.83 in 5.0 mi South 5.8 mph - N/A   Overcast
4:55 AM 46.4 °F 43.5 °F 44.6 °F 93% 29.82 in 4.0 mi South 5.8 mph - N/A   Overcast
5:15 AM 46.4 °F 42.9 °F 44.6 °F 93% 29.81 in 5.0 mi South 6.9 mph - N/A   Overcast
5:35 AM 46.4 °F 43.5 °F 44.6 °F 93% 29.80 in 2.5 mi SE 5.8 mph - N/A   Overcast
5:55 AM 46.4 °F 44.3 °F 46.4 °F 100% 29.80 in 2.0 mi SE 4.6 mph - N/A   Overcast
6:15 AM 46.4 °F 45.2 °F 46.4 °F 100% 29.80 in 1.8 mi SE 3.5 mph - N/A   Overcast
6:35 AM 46.4 °F 44.3 °F 46.4 °F 100% 29.79 in 1.8 mi East 4.6 mph - N/A   Overcast
6:55 AM 48.2 °F - 46.4 °F 93% 29.75 in 3.0 mi East 6.9 mph - N/A   Overcast
7:15 AM 48.2 °F - 46.4 °F 93% 29.74 in 4.0 mi ENE 3.5 mph - N/A   Overcast
7:35 AM 48.2 °F - 46.4 °F 93% 29.73 in 4.0 mi ESE 5.8 mph - N/A   Overcast
7:55 AM 48.2 °F - 46.4 °F 93% 29.75 in 4.0 mi SE 4.6 mph - N/A   Overcast
8:15 AM 51.8 °F - 48.2 °F 88% 29.75 in 4.0 mi SE 3.5 mph - N/A   Overcast
8:55 AM 51.8 °F - 48.2 °F 88% 29.74 in 4.0 mi South 8.1 mph - N/A Rain Light Rain
9:35 AM 53.6 °F - 51.8 °F 94% 29.73 in 5.0 mi SSW 11.5 mph - N/A   Overcast
9:55 AM 53.6 °F - 53.6 °F 100% 29.72 in 4.0 mi South 9.2 mph - N/A   Overcast
10:15 AM 55.4 °F - 53.6 °F 94% 29.72 in 4.0 mi SSW 16.1 mph 19.6 mph N/A   Overcast
10:35 AM 57.2 °F - 53.6 °F 88% 29.72 in 4.0 mi SW 17.3 mph - N/A   Overcast
10:55 AM 55.4 °F - 55.4 °F 100% 29.71 in 2.5 mi SSW 18.4 mph 21.9 mph N/A   Overcast
11:15 AM 57.2 °F - 55.4 °F 94% 29.70 in 2.5 mi SSW 12.7 mph - N/A   Overcast
11:35 AM 57.2 °F - 55.4 °F 94% 29.70 in 5.0 mi SW 12.7 mph - N/A   Overcast
11:55 AM 57.2 °F - 53.6 °F 88% 29.70 in 10.0 mi WSW 13.8 mph - N/A   Overcast
12:35 PM 60.8 °F - 55.4 °F 82% 29.69 in 10.0 mi WSW 8.1 mph - N/A   Overcast
12:55 PM 60.8 °F - 53.6 °F 77% 29.68 in 10.0 mi SW 11.5 mph - N/A   Overcast
1:15 PM 62.6 °F - 53.6 °F 72% 29.67 in 10.0 mi WSW 11.5 mph - N/A   Mostly Cloudy
1:35 PM 64.4 °F - 53.6 °F 68% 29.67 in 10.0 mi SSW 16.1 mph 20.7 mph N/A   Scattered Clouds
1:55 PM 64.4 °F - 53.6 °F 68% 29.67 in 10.0 mi SW 13.8 mph 18.4 mph N/A   Scattered Clouds
2:15 PM 66.2 °F - 53.6 °F 64% 29.66 in 10.0 mi SW 13.8 mph 18.4 mph N/A   Scattered Clouds
2:35 PM 64.4 °F - 53.6 °F 68% 29.66 in 10.0 mi SW 10.4 mph 16.1 mph N/A   Scattered Clouds
2:55 PM 64.4 °F - 55.4 °F 73% 29.66 in 10.0 mi WSW 12.7 mph - N/A   Mostly Cloudy
3:15 PM 66.2 °F - 55.4 °F 68% 29.66 in 10.0 mi WSW 10.4 mph - N/A   Scattered Clouds
3:35 PM 66.2 °F - 55.4 °F 68% 29.65 in 10.0 mi SW 11.5 mph - N/A   Scattered Clouds
3:55 PM 68.0 °F - 55.4 °F 64% 29.66 in 10.0 mi SW 11.5 mph 16.1 mph N/A   Scattered Clouds
4:15 PM 69.8 °F - 53.6 °F 56% 29.65 in 10.0 mi SW 13.8 mph - N/A   Mostly Cloudy
4:35 PM 69.8 °F - 55.4 °F 60% 29.65 in 10.0 mi WSW 10.4 mph - N/A   Mostly Cloudy
4:55 PM 69.8 °F - 55.4 °F 60% 29.65 in 10.0 mi WSW 10.4 mph - N/A   Scattered Clouds
5:15 PM 69.8 °F - 55.4 °F 60% 29.65 in 10.0 mi SW 8.1 mph - N/A   Scattered Clouds
5:55 PM 69.8 °F - 55.4 °F 60% 29.65 in 10.0 mi SW 8.1 mph - N/A   Clear
6:15 PM 68.0 °F - 53.6 °F 60% 29.66 in 10.0 mi WSW 3.5 mph - N/A   Clear
6:35 PM 64.4 °F - 53.6 °F 68% 29.66 in 10.0 mi West 3.5 mph - N/A   Clear
6:55 PM 64.4 °F - 55.4 °F 73% 29.67 in 10.0 mi Calm Calm - N/A   Clear
7:35 PM 64.4 °F - 55.4 °F 73% 29.68 in 10.0 mi Calm Calm - N/A   Scattered Clouds
7:55 PM 60.8 °F - 53.6 °F 77% 29.68 in 10.0 mi NNE 3.5 mph - N/A   Mostly Cloudy
8:35 PM 62.6 °F - 53.6 °F 72% 29.67 in 10.0 mi NNE 4.6 mph - N/A   Scattered Clouds
9:15 PM 62.6 °F - 55.4 °F 77% 29.67 in 10.0 mi North 5.8 mph - N/A   Clear
9:35 PM 62.6 °F - 53.6 °F 72% 29.67 in 10.0 mi NNE 6.9 mph - N/A   Clear
9:55 PM 62.6 °F - 53.6 °F 72% 29.69 in 10.0 mi NNE 6.9 mph - N/A   Clear
10:15 PM 60.8 °F - 51.8 °F 72% 29.70 in 10.0 mi NE 6.9 mph - N/A   Clear
11:15 PM 57.2 °F - 50.0 °F 77% 29.68 in 10.0 mi NNE 9.2 mph 16.1 mph N/A   Clear
11:35 PM 55.4 °F - 48.2 °F 77% 29.69 in 10.0 mi NNE 8.1 mph 16.1 mph N/A   Clear